Location: Bourguignon
(49.5441°N, 3.1585°E)
Time: 08:28:16
(UTC+00:00)

Meteor 1-27 Rocket - Pass Details

Date: 15 May 2026
Orbit: 830 x 907 km, 81.3° (Epoch: 6 June)

Event Time Altitude Azimuth Distance (km) Brightness Sun altitude
Exits shadow 23:25:47 41° 157° (SSE) 1,257 4.1 -21.3°
Maximum altitude 23:27:40 62° 97° (E) 988 3.9 -21.3°
Drops below altitude 10° 23:33:19 10° 18° (NNE) 2,524 7.2 -21.4°
Sets 23:35:45 0° 15° (NNE) 3,454 8.2 -21.4°
